Regional Weather Roundup
Issued by NWS

Home | Current Version | Previous Version | Text Only | Print | Product List | Glossary Off
Versions: 1 2 3 4 5 6 7 8 9 10 11 12 13 14 15 16 17 18 19 20 21 22 23 24 25 26 27 28 29 30 31 32 33 34 35 36 37 38 39 40 41 42 43 44 45 46 47 48 49 50

000
ASUS43 KMPX 201101
RWRMN
WEATHER ROUNDUP FOR MINNESOTA
NATIONAL WEATHER SERVICE TWIN CITIES/CHANHASSEN MN
500 AM CST MON NOV 20 2017


NOTE: "FAIR" INDICATES FEW OR NO CLOUDS BELOW 12,000 FEET WITH NO
SIGNIFICANT WEATHER AND/OR OBSTRUCTIONS TO VISIBILITY. N/A MEANS
CURRENT SKY AND/OR WEATHER CONDITIONS ARE NOT AVAILABLE.

MNZ060>063-068>070-201200-
   Twin Cities Metro

CITY           SKY/WX    TMP DP  RH WIND       PRES   REMARKS
TWIN CITIES    CLOUDY    30  26  85 SE5       29.70F WCI  25
ST PAUL        CLOUDY    30  27  88 SE5       29.72F WCI  25
CRYSTAL        CLOUDY    28  22  78 S5        29.68F WCI  23
BLAINE         CLOUDY    30  27  86 S5        29.68F WCI  25
LAKEVILLE      CLOUDY    30  27  86 S7        29.70F WCI  23
EDEN PRAIRIE   CLOUDY    32  26  78 S3        29.69F
SOUTH ST PAUL  CLOUDY    32  27  84 CALM      29.71F
LAKE ELMO      FAIR      28  27  93 S5        29.71F WCI  23
$$
MNZ001>005-007-008-013>017-022>024-027-028-201200-
   Northwest Minnesota

CITY           SKY/WX    TMP DP  RH WIND       PRES   REMARKS
BEMIDJI        CLOUDY    21  20  94 SE5       29.56F WCI  15
HALLOCK        CLOUDY    28  25  86 SE15      29.44F WCI  17
ROSEAU         CLOUDY    25  21  86 SE6       29.51F WCI  18
WARROAD        CLOUDY    23  19  86 SE7       29.52F WCI  15
CROOKSTON      CLOUDY    28  25  86 S16       29.51F WCI  17
FOSSTON        CLOUDY    28  25  86 SE7       29.53F WCI  21
DETROIT LAKES  CLOUDY    27  23  86 SE7       29.57F WCI  19
MOORHEAD       CLOUDY    28  21  74 S13       29.55F WCI  18
PARK RAPIDS    CLOUDY    24  20  84 SE7       29.57F WCI  16
MAHNOMEN       FAIR      29  23  78 SE7       29.54F WCI  22
$$
MNZ006-009>011-018-025>026-201200-
   North Central Minnesota

CITY           SKY/WX    TMP DP  RH WIND       PRES   REMARKS
BAUDETTE       CLOUDY    18  14  84 SE6       29.54F WCI  10
FLAG ISLAND    CLOUDY    21  18  86 SE9       29.53F WCI  11
INTL FALLS     CLOUDY    17  12  80 SE5       29.59F WCI  10
WASKISH        CLOUDY    25  21  86 SE3       29.55F
BIG FORK       CLOUDY    21  19  93 CALM      29.60F
LONGVILLE      CLOUDY    16  16 100 CALM      29.61F
GRAND RAPIDS   CLOUDY    18  16  92 SE6       29.64F WCI  10
CRANE LAKE     CLOUDY    12  10  92 CALM      29.65F
ORR            CLOUDY    18  14  86 SE5       29.60F WCI  11
COOK           CLOUDY    16  12  86 CALM      29.63F
WALKER         FAIR      25  23  92 E3        29.58F
$$
MNZ012-019>021-037-201200-
   Northeast Minnesota

CITY           SKY/WX    TMP DP  RH WIND       PRES   REMARKS
DULUTH         CLOUDY    21  20  96 E3        29.65F
ELY            CLOUDY    12  12 100 CALM      29.64F
HIBBING        CLOUDY    13  11  92 CALM      29.64F
EVELETH        CLOUDY    14  10  85 CALM      29.66F
DULUTH HARBOR  CLOUDY    23  19  86 S3        29.70F
TWO HARBORS    CLOUDY    21  18  86 N5        29.66F WCI  15
SILVER BAY     CLOUDY    14  12  92 CALM      29.67F
GRAND MARAIS     N/A     26  20  77 NE5       29.74F WCI  20
G MARAIS ARPRT CLOUDY    18  14  86 E5        29.66F WCI  11
$$
MNZ029>031-032-039>041-046>048-054>057-064-201200-
   West Central Minnesota

CITY           SKY/WX    TMP DP  RH WIND       PRES   REMARKS
FERGUS FALLS   CLOUDY    28  23  80 S8        29.61F WCI  20
WHEATON        CLOUDY    27  21  80 SE10      29.60F WCI  17
MORRIS         CLOUDY    27  21  80 SE7       29.59F WCI  19
ALEXANDRIA     CLOUDY    28  23  81 SE6       29.61F WCI  22
ELBOW LAKE     FAIR      28  24  84 SE7       29.60F WCI  20
WADENA         CLOUDY    21  19  93 CALM      29.60F
GLENWOOD       CLOUDY    27  23  86 SE5       29.62F WCI  21
APPLETON       CLOUDY    28  21  74 SE3       29.61F
BENSON         CLOUDY    28  23  80 S7        29.62F WCI  21
ORTONVILLE     CLOUDY    27  21  80 MISG      29.59F
MADISON        CLOUDY    28  25  86 S9        29.60F WCI  20
WILLMAR        FAIR      27  25  93 SE6       29.65F WCI  20
$$
MNZ033>034-036-042>043-049>051-058-059-201200-
   Central Minnesota

CITY           SKY/WX    TMP DP  RH WIND       PRES   REMARKS
ST CLOUD       CLOUDY    24  21  88 SE6       29.65F WCI  17
SAUK CENTRE    FAIR      26  22  87 SE3       29.63F
PAYNESVILLE    CLOUDY    30  26  86 CALM      29.65F
AITKIN         CLOUDY    18  16  93 CALM      29.63S
PINE RIVER     CLOUDY    19  18  93 CALM      29.66S
BRAINERD       CLOUDY    22  19  89 CALM      29.63F
STAPLES        CLOUDY    21  21 100 CALM      29.61F
LONG PRAIRIE   FAIR      25  23  93 CALM      29.63F
LITTLE FALLS   CLOUDY    25  19  80 CALM      29.64F
LITCHFIELD     CLOUDY    27  25  93 CALM      29.66F
BUFFALO        CLOUDY    30  25  83 S3        29.69F
MAPLE LAKE     CLOUDY    29  27  92 CALM      29.68F
HUTCHINSON     CLOUDY    27  24  90 SE6       29.67F WCI  20
$$
MNZ037-044-045-052-053-201200-
   East Central Minnesota

CITY           SKY/WX    TMP DP  RH WIND       PRES   REMARKS
PRINCETON      CLOUDY    27  25  93 CALM      29.66F
MORA           CLOUDY    19  18  93 CALM      29.69F FOG
CAMBRIDGE      CLOUDY    28  25  86 CALM      29.68F
RUSH CITY      CLOUDY    26  23  89 S3        29.69F
MOOSE LAKE     CLOUDY    18  14  86 CALM      29.65F
HINCKLEY       FAIR      19  19 100 CALM      29.68F
CLOQUET        CLOUDY    19  16  86 CALM      29.65F
MCGREGOR       CLOUDY    21  19  93 CALM      29.65F
$$
MNZ071>073-080-081-089-090-097-098-201200-
   Southwest Minnesota

CITY           SKY/WX    TMP DP  RH WIND       PRES   REMARKS
MONTEVIDEO     CLOUDY    30  25  80 S5        29.61F WCI  25
GRANITE FALLS  CLOUDY    29  24  81 SE8       29.65F WCI  21
CANBY          PTCLDY    35  26  67 SE7       29.61F WCI  30
MARSHALL       CLOUDY    30  23  75 S7        29.63F WCI  23
REDWOOD FALLS  CLOUDY    27  21  78 S10       29.65F WCI  17
OLIVIA         CLOUDY    32  25  74 S8        29.64F WCI  25
PIPESTONE      CLOUDY    28  21  74 SE7       29.63F WCI  21
WINDOM         CLOUDY    34  19  55 S6        29.67F WCI  29
WORTHINGTON    CLOUDY    33  24  69 S13       29.67F WCI  24
JACKSON        CLOUDY    32  27  80 S15       29.69F WCI  22
SLAYTON        CLOUDY    29  24  79 S12       29.66F WCI  19
$$
MNZ065>067-074>077-082>085-091>093-201200-
   South Central Minnesota

CITY           SKY/WX    TMP DP  RH WIND       PRES   REMARKS
MANKATO        CLOUDY    30  26  85 S10       29.70F WCI  21
NEW ULM        CLOUDY    28  23  80 CALM      29.68F
ST JAMES       CLOUDY    30  27  86 S8        29.69F WCI  23
FAIRMONT       CLOUDY    26  24  92 S10       29.71F WCI  16
GLENCOE        CLOUDY    31  27  86 SE5       29.67F WCI  26
FARIBAULT      CLOUDY    30  27  86 S8        29.72F WCI  23
OWATONNA       CLOUDY    30  27  86 S10       29.72F WCI  21
WASECA         CLOUDY    32  28  86 S8        29.73F WCI  25
ALBERT LEA     CLOUDY    34  25  69 S5        29.74F WCI  30
$$
MNZ078>079-086>088-094>096-201200-
   Southeast Minnesota

CITY           SKY/WX    TMP DP  RH WIND       PRES   REMARKS
ROCHESTER      CLOUDY    29  26  89 S13       29.75F WCI  19
RED WING       CLOUDY    34  25  69 SE5       29.73F WCI  30
STANTON        CLOUDY    33  28  80 S9        29.70F WCI  25
DODGE CENTER   CLOUDY    30  27  86 S12       29.73F WCI  21
WINONA         CLOUDY    34  28  80 CALM      29.79S
PRESTON        CLOUDY    29  25  86 S12       29.77F WCI  19
$$
ABBREVIATIONS USED IN REMARKS
   TC - TEMPERATURES IN CELSIUS
  WCI - WIND CHILL INDEX
   HX - HEAT INDEX
  VSB - VISIBILITY
$$




USA.gov is the U.S. government's official web portal to all federal, state and local government web resources and services.